GW3097 Weather Reports


time (UTC)temp
F
wind
direction
speed
knots
gust
knots
rain 1hr
in
rain 24hr
in
rain mn
in
humidity
%
barometer
mb
20260504130418 53 231 7.8 11.3 0.00 0.00 0.00 46 1043.3
20260504110304 45 248 0.9 1.7 0.00 0.00 0.00 61 1043.4
20260504100223 41 242 0.9 1.7 0.00 0.00 0.00 67 1043.2
20260504081616 43 238 2.6 2.6 0.00 0.00 0.00 63 1043.5
20260504081111 44 252 0.9 3.5 0.00 0.00 0.00 62 1043.4
20260504080609 43 253 1.7 2.6 0.00 0.00 0.00 63 1043.3
20260504080105 43 255 0.0 2.6 0.00 0.00 0.00 63 1043.3
20260504050415 46 261 1.7 2.6 0.00 0.00 0.00 57 1043.0
20260504045913 46 247 2.6 2.6 0.00 0.00 0.00 56 1043.2
20260504045408 46 273 1.7 1.7 0.00 0.00 0.00 56 1043.1
20260504044905 46 248 1.7 2.6 0.00 0.00 0.00 56 1043.0
20260504044402 45 274 0.9 1.7 0.00 0.00 0.00 57 1042.9
20260504043900 46 268 1.7 1.7 0.00 0.00 0.00 56 1042.9
20260504043356 46 266 1.7 2.6 0.00 0.00 0.00 56 1042.9
20260504042854 46 261 1.7 1.7 0.00 0.00 0.00 56 1043.0
20260504042350 45 256 1.7 1.7 0.00 0.00 0.00 56 1042.7
20260504041846 45 266 1.7 1.7 0.00 0.00 0.00 57 1042.9
20260504041343 46 268 0.0 0.9 0.00 0.00 0.00 57 1042.8
20260504040839 46 263 0.9 1.7 0.00 0.00 0.00 56 1042.7
20260504040337 46 252 0.9 1.7 0.00 0.00 0.00 55 1042.8
20260504035832 46 247 2.6 2.6 0.00 0.00 0.00 55 1042.6
20260504035330 46 264 1.7 2.6 0.00 0.00 0.00 55 1042.6
20260504034827 46 236 2.6 3.5 0.00 0.00 0.00 55 1042.7
20260504034325 46 265 1.7 2.6 0.00 0.00 0.00 56 1042.8
20260504033821 47 260 0.9 2.6 0.00 0.00 0.00 55 1042.7
20260504033319 47 238 3.5 3.5 0.00 0.00 0.00 55 1042.5
20260504032815 47 239 1.7 5.2 0.00 0.00 0.00 55 1042.7
20260504032313 47 235 2.6 3.5 0.00 0.00 0.00 53 1042.8
20260504031810 47 266 1.7 5.2 0.00 0.00 0.00 53 1042.7
20260504031307 47 234 3.5 5.2 0.00 0.00 0.00 53 1042.6
20260504030803 47 238 2.6 3.5 0.00 0.00 0.00 53 1042.9
20260504030300 47 256 1.7 3.5 0.00 0.00 0.00 53 1042.8
20260504025756 47 264 0.9 1.7 0.00 0.00 0.00 53 1042.5
20260504025253 48 267 0.9 1.7 0.00 0.00 0.00 52 1042.6
20260504024750 48 240 1.7 2.6 0.00 0.00 0.00 51 1042.5
20260504024247 48 268 1.7 2.6 0.00 0.00 0.00 50 1042.7
20260504023744 48 254 1.7 2.6 0.00 0.00 0.00 50 1042.7
20260504023240 48 258 2.6 3.5 0.00 0.00 0.00 51 1042.6
20260504022736 48 267 1.7 2.6 0.00 0.00 0.00 52 1042.7
20260504022232 48 266 1.7 2.6 0.00 0.00 0.00 51 1042.7
20260504021730 49 251 1.7 2.6 0.00 0.00 0.00 50 1042.5
20260504021227 49 244 2.6 5.2 0.00 0.00 0.00 48 1042.8
20260504020723 48 248 1.7 2.6 0.00 0.00 0.00 49 1042.7
20260504020220 49 263 0.9 1.7 0.00 0.00 0.00 50 1042.7
20260504015716 48 230 0.9 1.7 0.00 0.00 0.00 51 1042.7
20260504015213 48 249 0.9 1.7 0.00 0.00 0.00 51 1042.8
20260504014708 48 250 0.0 0.0 0.00 0.00 0.00 51 1042.6
20260504014206 49 264 0.9 1.7 0.00 0.00 0.00 50 1042.5
20260504013703 49 249 0.0 1.7 0.00 0.00 0.00 49 1042.6
20260504013200 50 249 0.9 1.7 0.00 0.00 0.00 49 1042.7
20260504012657 49 249 0.9 1.7 0.00 0.00 0.00 50 1042.4
20260504012155 49 249 0.9 0.9 0.00 0.00 0.00 50 1042.2
20260504011652 49 249 0.0 0.9 0.00 0.00 0.00 49 1042.3
20260504011148 49 249 0.9 0.9 0.00 0.00 0.00 48 1042.2
20260504010644 50 254 0.9 1.7 0.00 0.00 0.00 48 1042.1
20260504010139 49 273 0.0 0.9 0.00 0.00 0.00 48 1042.1
20260504005637 50 271 0.0 0.9 0.00 0.00 0.00 46 1042.2
20260504005133 50 273 0.9 0.9 0.00 0.00 0.00 47 1041.9
20260504004632 50 272 0.9 1.7 0.00 0.00 0.00 46 1042.0
20260504004129 49 278 1.7 1.7 0.00 0.00 0.00 48 1042.2
20260504003625 50 274 1.7 1.7 0.00 0.00 0.00 48 1042.1
20260504003122 50 278 2.6 2.6 0.00 0.00 0.00 48 1042.1
20260504002618 50 273 0.9 1.7 0.00 0.00 0.00 47 1041.8
20260504002116 51 275 0.9 1.7 0.00 0.00 0.00 47 1041.8
20260504001614 51 276 0.9 1.7 0.00 0.00 0.00 45 1041.9
20260504001109 52 275 0.9 0.9 0.00 0.00 0.00 44 1041.8
20260504000607 53 270 0.9 1.7 0.00 0.00 0.00 42 1041.5
20260504000104 53 253 2.6 2.6 0.00 0.00 0.00 40 1041.7
20260503235603 54 267 2.6 2.6 0.00 0.00 0.00 39 1041.7
20260503235059 54 266 2.6 5.2 0.00 0.00 0.00 39 1041.8
20260503234557 54 246 3.5 5.2 0.00 0.00 0.00 38 1041.4
20260503234055 54 266 2.6 3.5 0.00 0.00 0.00 38 1041.7
20260503233551 54 266 0.9 2.6 0.00 0.00 0.00 39 1041.4
20260503233047 55 271 1.7 6.1 0.00 0.00 0.00 39 1041.5
20260503232544 55 266 5.2 7.0 0.00 0.00 0.00 37 1041.7
20260503232042 55 254 1.7 2.6 0.00 0.00 0.00 38 1041.7
20260503231539 55 275 1.7 3.5 0.00 0.00 0.00 37 1041.5
20260503231036 55 266 3.5 5.2 0.00 0.00 0.00 37 1041.7
20260503230532 55 282 5.2 7.8 0.00 0.00 0.00 37 1041.7
20260503230030 55 257 3.5 5.2 0.00 0.00 0.00 36 1041.3
20260503225527 55 247 3.5 5.2 0.00 0.00 0.00 36 1041.3
20260503225021 55 285 3.5 7.0 0.00 0.00 0.00 37 1041.5
20260503224519 56 277 5.2 9.6 0.00 0.00 0.00 36 1041.5
20260503224011 56 272 7.8 13.0 0.00 0.00 0.00 35 1041.4
20260503223509 56 193 6.1 8.7 0.00 0.00 0.00 36 1041.3
20260503223004 56 283 4.3 8.7 0.00 0.00 0.00 36 1041.3
20260503222503 56 269 4.3 9.6 0.00 0.00 0.00 36 1041.4
20260503222001 56 249 5.2 7.0 0.00 0.00 0.00 36 1041.3
20260503221459 55 291 6.1 9.6 0.00 0.00 0.00 36 1041.3
20260503220955 56 259 7.0 13.9 0.00 0.00 0.00 35 1041.5
20260503220446 55 277 6.1 7.0 0.00 0.00 0.00 36 1041.2
20260503215943 55 248 4.3 11.3 0.00 0.00 0.00 37 1041.8
20260503215439 56 274 4.3 9.6 0.00 0.00 0.00 36 1041.7
20260503214937 56 234 7.8 13.0 0.00 0.00 0.00 35 1041.5
20260503214435 55 268 5.2 13.9 0.00 0.00 0.00 36 1041.3
20260503213932 55 270 7.0 11.3 0.00 0.00 0.00 36 1041.7
20260503213430 56 253 8.7 15.6 0.00 0.00 0.00 35 1041.3
20260503212926 56 271 6.1 7.8 0.00 0.00 0.00 35 1041.3
20260503212424 56 281 10.4 16.5 0.00 0.00 0.00 35 1041.4
20260503211921 55 310 7.0 19.1 0.00 0.00 0.00 34 1041.4
20260503211418 56 255 9.6 12.2 0.00 0.00 0.00 33 1041.2
20260503210913 55 271 5.2 15.6 0.00 0.00 0.00 33 1041.1
20260503210410 55 252 7.8 8.7 0.00 0.00 0.00 33 1041.4
20260503205905 55 264 12.2 14.8 0.00 0.00 0.00 33 1041.7
20260503205403 56 302 9.6 13.0 0.00 0.00 0.00 32 1041.4
20260503204858 58 242 9.6 11.3 0.00 0.00 0.00 30 1041.0
20260503204356 57 277 9.6 12.2 0.00 0.00 0.00 32 1040.7
20260503203853 56 243 2.6 8.7 0.00 0.00 0.00 30 1041.1
20260503203350 57 276 7.0 12.2 0.00 0.00 0.00 31 1041.1
20260503202847 56 285 3.5 12.2 0.00 0.00 0.00 32 1040.9
20260503202345 56 281 7.0 14.8 0.00 0.00 0.00 31 1041.2
20260503201843 56 251 10.4 13.0 0.00 0.00 0.00 31 1041.2
20260503201340 55 229 6.1 9.6 0.00 0.00 0.00 31 1041.3
20260503200838 57 272 4.3 16.5 0.00 0.00 0.00 31 1041.2
20260503200333 56 276 11.3 13.9 0.00 0.00 0.00 30 1041.4
20260503195831 55 325 5.2 11.3 0.00 0.00 0.00 31 1041.3
20260503195327 56 258 7.0 15.6 0.00 0.00 0.00 30 1041.4
20260503194825 56 301 7.0 8.7 0.00 0.00 0.00 30 1041.3
20260503194320 55 270 6.1 8.7 0.00 0.00 0.00 33 1041.4
20260503193816 55 268 9.6 12.2 0.00 0.00 0.00 32 1041.8
20260503193313 55 271 14.8 18.2 0.00 0.00 0.00 31 1041.8
20260503192809 53 242 13.9 20.9 0.00 0.00 0.00 31 1041.8
20260503192305 55 231 11.3 20.0 0.00 0.00 0.00 32 1041.8
20260503191801 55 244 13.9 19.1 0.00 0.00 0.00 31 1042.0
20260503191258 54 245 8.7 19.1 0.00 0.00 0.00 33 1042.2
20260503190754 54 249 9.6 11.3 0.00 0.00 0.00 32 1042.2
20260503190251 54 323 4.3 13.0 0.00 0.00 0.00 33 1042.4
20260503185749 53 247 5.2 13.9 0.00 0.00 0.00 36 1042.3
20260503185244 52 245 7.0 20.0 0.00 0.00 0.00 33 1042.5
20260503184739 53 288 7.8 18.2 0.00 0.00 0.00 34 1042.5
20260503184236 53 242 7.8 11.3 0.00 0.00 0.00 33 1042.7
20260503183732 53 279 9.6 14.8 0.00 0.00 0.00 33 1042.6
20260503183229 53 239 3.5 9.6 0.00 0.00 0.00 35 1042.5
20260503182727 51 263 11.3 18.2 0.00 0.00 0.00 35 1042.8
20260503182226 51 269 4.3 16.5 0.00 0.00 0.00 35 1042.7
20260503181722 51 321 5.2 12.2 0.00 0.00 0.00 36 1043.0
20260503181219 51 279 11.3 19.1 0.00 0.00 0.00 36 1043.0
20260503180715 52 212 9.6 13.0 0.00 0.00 0.00 34 1042.9
20260503180214 52 262 3.5 12.2 0.00 0.00 0.00 35 1043.0
20260503175710 51 284 9.6 14.8 0.00 0.00 0.00 33 1043.2
20260503175208 50 262 9.6 16.5 0.00 0.00 0.00 35 1043.1
20260503174704 51 250 9.6 11.3 0.00 0.00 0.00 35 1043.0
20260503174202 50 273 13.0 16.5 0.00 0.00 0.00 36 1043.4
20260503173656 50 295 7.8 13.0 0.00 0.00 0.00 37 1043.5
20260503173152 50 291 11.3 15.6 0.00 0.00 0.00 36 1043.1
20260503172649 50 255 6.1 11.3 0.00 0.00 0.00 36 1043.0
20260503172146 51 332 9.6 14.8 0.00 0.00 0.00 34 1043.3
20260503171642 51 340 8.7 11.3 0.00 0.00 0.00 34 1043.4
20260503171140 50 253 5.2 18.2 0.00 0.00 0.00 36 1043.1
20260503170637 50 289 9.6 13.9 0.00 0.00 0.00 35 1043.3
20260503170134 50 233 4.3 13.9 0.00 0.00 0.00 37 1043.5
20260503150525 46 269 7.8 13.0 0.00 0.00 0.00 42 1044.0